| time (UTC) | temp F | wind direction | speed MPH | gust MPH | rain 1hr in | rain 24hr in | rain mn in | humidity % | barometer mb |
| 20260506044557 | 60 | 0.0 | 0.0 | 0.00 | 0.00 | 0.00 | 66 | 1010.8 | |
| 20260506043052 | 61 | 0.0 | 0.0 | 0.00 | 0.00 | 0.00 | 64 | 1010.8 | |
| 20260506041606 | 62 | 0.0 | 0.0 | 0.00 | 0.00 | 0.00 | 62 | 1010.8 | |
| 20260506040059 | 63 | 0.0 | 0.0 | 0.00 | 0.00 | 0.00 | 61 | 1010.6 | |
| 20260506034554 | 64 | 0.0 | 0.0 | 0.00 | 0.00 | 0.00 | 59 | 1010.8 | |
| 20260506033054 | 66 | 0.0 | 0.0 | 0.00 | 0.00 | 0.00 | 57 | 1010.4 | |
| 20260506031557 | 68 | 0.0 | 0.0 | 0.00 | 0.00 | 0.00 | 55 | 1010.3 | |
| 20260506030057 | 70 | 0.0 | 0.0 | 0.00 | 0.00 | 0.00 | 53 | 1010.1 | |
| 20260506024557 | 70 | 0.0 | 0.0 | 0.00 | 0.00 | 0.00 | 52 | 1009.9 | |
| 20260506023108 | 71 | 0.0 | 0.0 | 0.00 | 0.00 | 0.00 | 52 | 1009.5 | |
| 20260506021612 | 72 | 0.0 | 0.0 | 0.00 | 0.00 | 0.00 | 51 | 1009.3 | |
| 20260506020058 | 73 | 0.0 | 0.0 | 0.00 | 0.00 | 0.00 | 50 | 1009.1 | |
| 20260506014557 | 74 | 0.0 | 0.0 | 0.00 | 0.00 | 0.00 | 49 | 1008.8 | |
| 20260506013109 | 75 | 0.0 | 0.0 | 0.00 | 0.00 | 0.00 | 48 | 1008.4 | |
| 20260506011615 | 76 | 0.0 | 0.0 | 0.00 | 0.00 | 0.00 | 47 | 1007.9 | |
| 20260506004557 | 78 | 0.0 | 0.0 | 0.00 | 0.00 | 0.00 | 45 | 1007.7 | |
| 20260506003101 | 80 | 0.0 | 0.0 | 0.00 | 0.00 | 0.00 | 43 | 1007.4 | |
| 20260506001559 | 81 | 0.0 | 0.0 | 0.00 | 0.00 | 0.00 | 42 | 1007.0 | |
| 20260506000055 | 82 | 0.0 | 0.0 | 0.00 | 0.00 | 0.00 | 40 | 1006.8 | |
| 20260505234556 | 83 | 0.0 | 0.0 | 0.00 | 0.00 | 0.00 | 36 | 1006.6 | |
| 20260505233058 | 84 | 0.0 | 0.0 | 0.00 | 0.00 | 0.00 | 33 | 1006.4 | |
| 20260505231607 | 85 | 0.0 | 0.0 | 0.00 | 0.00 | 0.00 | 32 | 1006.1 | |
| 20260505230055 | 86 | 0.0 | 0.0 | 0.00 | 0.00 | 0.00 | 31 | 1006.4 | |
| 20260505224556 | 87 | 0.0 | 0.0 | 0.00 | 0.00 | 0.00 | 30 | 1006.6 | |
| 20260505223057 | 87 | 0.0 | 0.0 | 0.00 | 0.00 | 0.00 | 29 | 1006.2 | |
| 20260505221600 | 88 | 0.0 | 0.0 | 0.00 | 0.00 | 0.00 | 29 | 1005.9 | |
| 20260505220059 | 89 | 0.0 | 0.0 | 0.00 | 0.00 | 0.00 | 28 | 1005.3 | |
| 20260505214558 | 90 | 0.0 | 0.0 | 0.00 | 0.00 | 0.00 | 27 | 1005.7 | |
| 20260505213053 | 93 | 0.0 | 0.0 | 0.00 | 0.00 | 0.00 | 25 | 1005.6 | |
| 20260505211556 | 95 | 0.0 | 0.0 | 0.00 | 0.00 | 0.00 | 23 | 1005.8 | |
| 20260505210055 | 96 | 0.0 | 0.0 | 0.00 | 0.00 | 0.00 | 18 | 1006.0 | |
| 20260505204556 | 96 | 0.0 | 0.0 | 0.00 | 0.00 | 0.00 | 17 | 1005.9 | |
| 20260505203120 | 99 | 0.0 | 0.0 | 0.00 | 0.00 | 0.00 | 18 | 1005.9 | |
| 20260505201608 | 98 | 0.0 | 0.0 | 0.00 | 0.00 | 0.00 | 19 | 1006.0 | |
| 20260505200107 | 98 | 0.0 | 0.0 | 0.00 | 0.00 | 0.00 | 19 | 1006.5 | |
| 20260505194558 | 99 | 0.0 | 0.0 | 0.00 | 0.00 | 0.00 | 22 | 1006.6 | |
| 20260505193100 | 97 | 0.0 | 0.0 | 0.00 | 0.00 | 0.00 | 22 | 1006.5 | |
| 20260505191611 | 94 | 0.0 | 0.0 | 0.00 | 0.00 | 0.00 | 24 | 1006.7 | |
| 20260505190057 | 94 | 0.0 | 0.0 | 0.00 | 0.00 | 0.00 | 25 | 1007.0 | |
| 20260505184557 | 94 | 0.0 | 0.0 | 0.00 | 0.00 | 0.00 | 25 | 1006.8 | |
| 20260505183052 | 93 | 0.0 | 0.0 | 0.00 | 0.00 | 0.00 | 32 | 1007.3 | |
| 20260505181603 | 93 | 0.0 | 0.0 | 0.00 | 0.00 | 0.00 | 34 | 1007.5 | |
| 20260505180101 | 91 | 0.0 | 0.0 | 0.00 | 0.00 | 0.00 | 38 | 1007.6 | |
| 20260505174555 | 91 | 0.0 | 0.0 | 0.00 | 0.00 | 0.00 | 38 | 1007.6 | |
| 20260505173058 | 88 | 0.0 | 0.0 | 0.00 | 0.00 | 0.00 | 44 | 1007.6 | |
| 20260505171556 | 87 | 0.0 | 0.0 | 0.00 | 0.00 | 0.00 | 44 | 1007.8 | |
| 20260505170109 | 86 | 0.0 | 0.0 | 0.00 | 0.00 | 0.00 | 44 | 1007.8 | |
| 20260505164556 | 85 | 0.0 | 0.0 | 0.00 | 0.00 | 0.00 | 47 | 1007.9 | |
| 20260505163057 | 83 | 0.0 | 0.0 | 0.00 | 0.00 | 0.00 | 51 | 1007.9 | |
| 20260505161614 | 82 | 0.0 | 0.0 | 0.00 | 0.00 | 0.00 | 53 | 1008.0 | |
| 20260505153103 | 79 | 0.0 | 0.0 | 0.00 | 0.00 | 0.00 | 56 | 1007.6 | |
| 20260505151606 | 78 | 0.0 | 0.0 | 0.00 | 0.00 | 0.00 | 56 | 1007.6 | |
| 20260505124556 | 69 | 0.0 | 0.0 | 0.00 | 0.00 | 0.00 | 78 | 1006.3 | |
| 20260505123054 | 68 | 0.0 | 0.0 | 0.00 | 0.00 | 0.00 | 78 | 1006.2 | |
| 20260505121625 | 68 | 0.0 | 0.0 | 0.00 | 0.00 | 0.00 | 78 | 1006.0 | |
| 20260505120056 | 68 | 0.0 | 0.0 | 0.00 | 0.00 | 0.00 | 78 | 1005.9 | |
| 20260505114554 | 68 | 0.0 | 0.0 | 0.00 | 0.00 | 0.00 | 78 | 1005.8 | |
| 20260505113053 | 68 | 0.0 | 0.0 | 0.00 | 0.00 | 0.00 | 77 | 1005.5 | |
| 20260505111555 | 68 | 0.0 | 0.0 | 0.00 | 0.00 | 0.00 | 77 | 1005.6 | |
| 20260505101558 | 69 | 0.0 | 0.0 | 0.00 | 0.00 | 0.00 | 76 | 1005.5 | |
| 20260505100059 | 69 | 0.0 | 0.0 | 0.00 | 0.00 | 0.00 | 76 | 1005.4 | |
| 20260505094556 | 69 | 0.0 | 0.0 | 0.00 | 0.00 | 0.00 | 75 | 1005.3 | |
| 20260505093053 | 69 | 0.0 | 0.0 | 0.00 | 0.00 | 0.00 | 75 | 1005.2 | |
| 20260505091600 | 70 | 0.0 | 0.0 | 0.00 | 0.00 | 0.00 | 74 | 1005.5 | |
| 20260505084555 | 70 | 0.0 | 0.0 | 0.00 | 0.00 | 0.00 | 74 | 1005.5 | |
| 20260505083103 | 70 | 0.0 | 0.0 | 0.00 | 0.00 | 0.00 | 73 | 1005.7 | |
| 20260505081559 | 71 | 0.0 | 0.0 | 0.00 | 0.00 | 0.00 | 72 | 1005.8 | |
| 20260505080056 | 71 | 0.0 | 0.0 | 0.00 | 0.00 | 0.00 | 72 | 1006.0 | |
| 20260505074559 | 71 | 0.0 | 0.0 | 0.00 | 0.00 | 0.00 | 71 | 1006.1 | |
| 20260505073103 | 72 | 0.0 | 0.0 | 0.00 | 0.00 | 0.00 | 70 | 1006.3 | |
| 20260505071601 | 72 | 0.0 | 0.0 | 0.00 | 0.00 | 0.00 | 70 | 1006.4 | |
| 20260505064554 | 73 | 0.0 | 0.0 | 0.00 | 0.00 | 0.00 | 69 | 1006.8 | |
| 20260505063059 | 73 | 0.0 | 0.0 | 0.00 | 0.00 | 0.00 | 67 | 1006.8 | |
| 20260505061612 | 74 | 0.0 | 0.0 | 0.00 | 0.00 | 0.00 | 66 | 1006.6 | |
| 20260505060059 | 74 | 0.0 | 0.0 | 0.00 | 0.00 | 0.00 | 65 | 1006.7 |